COSMOS 2251 DEB, 35716

Orbit data source: Space-Track

COSMOS 2251 DEB, 35716 is space debris in LEO originally from a launch on Wed, 16 Jun 1993 UTC launched from the Plesetsk Missile And Space Complex (PKMTR). The debris from Iridium 33, an American commercial communications satellite, has been tracked extensively since its accidental collision with the defunct Russian satellite Cosmos 2251 in 2009. This event, occurring at high speed in low Earth orbit (LEO), generated thousands of pieces of space debris, significantly increasing the risk of further collisions. The Iridium 33 debris cloud has impacted space traffic management and orbital debris mitigation strategies, making it a subject of ongoing study in space situational awareness.

Loading next visibility...
Identifier
35716, 1993-036AQM
Orbit
LEO
Country
Flag of CISCIS
Related business
Manufacturer
Unknown
Mission
Spacecraft
Bus & Motor
Unknown
Mass
Unknown
Launch date (UTC)
1993-06-16 (33 years ago)
Launch vehicle
Unknown
Launch site
Plesetsk Missile And Space Complex (PKMTR)
Object type
Payload
Rocket body
Debris
Shape & HBR
Unknown shape, 0.1 m
Radar Cross Section
Small (<0.1 m²)

Expand to show TLE details & history
Last TLE update: 2 days ago

TLE from 2 days ago
0 COSMOS 2251 DEB
1 35716U 93036AQM 26118.75402080  .00000690  00000-0  14156-3 0  9992
2 35716  73.9921 291.9681 0088150 100.5605 273.0656 14.60270372896273
Epoch: 2026-04-28T18:05Z
TLE epoch observation values (Epoch: 2026-04-28T18:05:47.397Z)
Latitude
12.08345°
Longitude
167.29806°
Altitude
691.393 km
Speed
7.513 km/s
True Right ascension
19h 41m 52s
True Declination
12° 00' 45"
Sunlit
Object was in daylight at epoch
Visualization orbit readout
Latitude
Unknown
Longitude
Unknown
Altitude
Unknown
Speed
Unknown
Apparent Right ascension
Unknown
Apparent Declination
Unknown
Sunlit
N/A
Visualization observer readout
Local Sidereal Time
17:28:53
Azimuth
Unknown
Elevation
Unknown
Doppler factor
Unknown
Orbital elements
Apogee altitude
752.207 km
Perigee altitude
627.597 km
Semi-major axis
7,068.039 km
Eccentricity
0.00882
Inclination
73.9921°
RAAN
291.9681°
Arg. of periapsis
100.5605°
True anomaly
272.05638°
Mean anomaly
273.0656°
Eccentric anomaly
272.56104°
Mean motion
3.65254 °/min
Orbital period
98.56 mins
BSTAR
0.00014156
Loading maneuver chart data...
Computing Atmospheric mass density...

Documentation

Showing up to 5 results
|